Volver al catálogo

STARLINK-30531

ActivoComunicacionesVLEO
NORAD 57998·PAYLOAD·🇺🇸 United States

Lanzado Oct 5, 2023 desde Cape Canaveral Space Force Station

Loading…

Próximos Pases (próximas 24 horas)

TLE

ActualizadoSource: CelesTrak SupGP

Época: Sep 15, 2026, 02:09 UTC

1 57998C 23153H   26258.09006944 -.00024831  00000+0 -89914-3 0  2588
2 57998  43.0034  77.3070 0001772 269.2202 106.2712 15.27598420    11

Sigue STARLINK-30531 en tiempo real con AllMySat

Download on the App Store